Location: Unspecified
(64.9000°N, 0.0000°E)
Time: 08:34:25
(UTC+00:00)

Altair - Pass Details

Date: 18 June 2019
Orbit: 1501 x 1683 km, 47.2° (Epoch: 21 July)

Event Time Altitude Azimuth Distance (km) Brightness Sun altitude
Rises 22:12:30 0° 225° (SW) 4,778 9.9 0.8°
Reaches altitude 10° 22:16:13 10° 214° (SSW) 3,824 9.3 0.6°
Maximum altitude 22:23:39 25° 163° (SSE) 2,843 8.4 0.3°
Drops below altitude 10° 22:31:14 10° 114° (ESE) 3,923 9.2 0.0°
Sets 22:35:06 0° 102° (ESE) 4,927 9.8 -0.1°
